Tallulah, LA

8:01 AM CST on February 11, 2016 (GMT -0600)
Vicksburg Tallulah Regional

Weather History for KTVR - April, 2012

Change the Weather History Date:

Thursday, April 5, 2012

  Actual Average Record
Temperature  
Mean Temperature 66 °F 62 °F  
Max Temperature 78 °F 73 °F 90 °F (1955)
Min Temperature 53 °F 50 °F 29 °F (1987)
Degree Days  
Heating Degree Days 0 5  
Month to date heating degree days 0 26  
Since 1 July heating degree days 1764 2267  
Cooling Degree Days 1 2  
Month to date cooling degree days 33 9  
Year to date cooling degree days 175 41  
Growing Degree Days 16 (Base 50)    
Moisture  
Dew Point 57 °F    
Average Humidity 71    
Maximum Humidity 100    
Minimum Humidity 41    
Precipitation  
Precipitation 0.00 in 0.16 in 4.04 in (1956)
Month to date precipitation 1.32 0.85  
Year to date precipitation 17.74 16.22  
Sea Level Pressure  
Sea Level Pressure 29.80 in    
Wind  
Wind Speed 6 mph (NW)    
Max Wind Speed 16 mph    
Max Gust Speed 23 mph    
Visibility 9 miles    
Events Thunderstorm    
T = Trace of Precipitation, MM = Missing Value Source: NWS Daily Summary

Daily Weather History Graph

Daily Weather History Graph

Search for Another Location

Airport or City:

Trip Planner

Search our weather history database for the weather conditions in past years. The results will help you decide how hot, cold, wet, or windy it might be!

Date:

Astronomy

Apr. 05, 2012 Rise Set
Actual Time 6:46 AM CDT 7:27 PM CDT
Civil Twilight 6:21 AM CDT 7:52 PM CDT
Nautical Twilight 5:52 AM CDT 8:21 PM CDT
Astronomical Twilight 5:22 AM CDT 8:51 PM CDT
Moon 6:33 PM CDT (4/5) 5:40 AM CDT (4/5)
Length of Visible Light 13h 30m
Length of Day
12h 40m
Waxing Gibbous, 98% of the Moon is Illuminated
Apr 5
Waxing Gibbous
Apr 6
Full
Apr 13
Last Quarter
Apr 21
New
Apr 29
First Quarter

Hourly Weather History & Observations

Time (CDT) Temp. Dew Point Humidity Pressure Visibility Wind Dir Wind Speed Gust Speed Precip Events Conditions
12:53 AM 64.0 °F 63.0 °F 96% 29.78 in 10.0 mi Calm Calm - N/A   Partly Cloudy
1:53 AM 64.0 °F 63.0 °F 96% 29.78 in 10.0 mi Calm Calm - N/A   Scattered Clouds
2:53 AM 63.0 °F 62.1 °F 97% 29.77 in 10.0 mi Calm Calm - N/A   Partly Cloudy
3:53 AM 63.0 °F 62.1 °F 97% 29.77 in 10.0 mi Calm Calm - N/A   Mostly Cloudy
4:53 AM 63.0 °F 62.1 °F 97% 29.75 in 10.0 mi SSE 3.5 mph - N/A   Clear
5:53 AM 63.0 °F 62.1 °F 97% 29.74 in 7.0 mi SSE 4.6 mph - N/A   Clear
6:37 AM 64.4 °F 62.6 °F 94% 29.73 in 6.0 mi Calm Calm - N/A   Scattered Clouds
6:45 AM 62.6 °F 62.6 °F 100% 29.73 in 4.0 mi Calm Calm - N/A   Mostly Cloudy
6:53 AM 64.0 °F 63.0 °F 96% 29.75 in 4.0 mi Calm Calm - N/A Thunderstorm Mostly Cloudy
7:16 AM 64.4 °F 64.4 °F 100% 29.76 in 5.0 mi NNW 4.6 mph - N/A Thunderstorm Overcast
7:31 AM 64.4 °F 60.8 °F 88% 29.77 in 10.0 mi NNW 9.2 mph - N/A   Overcast
7:53 AM 63.0 °F 59.0 °F 87% 29.80 in 10.0 mi NW 5.8 mph - N/A   Mostly Cloudy
8:10 AM 64.4 °F 59.0 °F 83% 29.79 in 10.0 mi NW 4.6 mph - N/A   Overcast
8:18 AM 62.6 °F 59.0 °F 88% 29.79 in 10.0 mi NW 3.5 mph - N/A   Mostly Cloudy
8:29 AM 64.4 °F 57.2 °F 77% 29.79 in 10.0 mi NNW 4.6 mph - N/A   Mostly Cloudy
8:53 AM 64.0 °F 57.9 °F 80% 29.82 in 10.0 mi NNE 8.1 mph - N/A   Overcast
9:53 AM 66.9 °F 57.9 °F 73% 29.84 in 10.0 mi North 6.9 mph - N/A   Clear
10:53 AM 70.0 °F 57.0 °F 63% 29.85 in 10.0 mi North 5.8 mph - N/A   Clear
11:53 AM 72.0 °F 55.0 °F 55% 29.84 in 10.0 mi Variable 6.9 mph - N/A   Partly Cloudy
12:53 PM 75.0 °F 52.0 °F 44% 29.82 in 10.0 mi NW 10.4 mph 18.4 mph N/A   Clear
1:53 PM 75.9 °F 50.0 °F 40% 29.80 in 10.0 mi West 13.8 mph 19.6 mph N/A   Clear
2:53 PM 75.9 °F 51.1 °F 42% 29.79 in 10.0 mi NW 16.1 mph 20.7 mph N/A   Clear
3:53 PM 75.9 °F 50.0 °F 40% 29.78 in 10.0 mi WNW 12.7 mph 20.7 mph N/A   Clear
4:53 PM 75.9 °F 50.0 °F 40% 29.78 in 10.0 mi WNW 10.4 mph 21.9 mph N/A   Clear
5:53 PM 75.0 °F 51.1 °F 43% 29.79 in 10.0 mi NW 8.1 mph 17.3 mph N/A   Clear
6:53 PM 72.0 °F 51.1 °F 48% 29.80 in 10.0 mi NNW 6.9 mph - N/A   Clear
7:53 PM 68.0 °F 52.0 °F 56% 29.82 in 10.0 mi NNW 5.8 mph - N/A   Clear
8:53 PM 66.0 °F 51.1 °F 59% 29.85 in 10.0 mi NNW 4.6 mph - N/A   Clear
9:53 PM 57.0 °F 52.0 °F 83% 29.87 in 10.0 mi WNW 3.5 mph - N/A   Clear
10:53 PM 57.0 °F 55.0 °F 93% 29.88 in 10.0 mi Calm Calm - N/A   Clear
11:53 PM 55.0 °F 53.1 °F 93% 29.91 in 10.0 mi Calm Calm - N/A   Clear